Home   Weather   Antofagasta   Past weeks

Flag for Chile Past Weather in Antofagasta, Chile — Yesterday and Last 2 Weeks

Now
61 °F

Partly sunny.


Feels Like: 61 °F
Forecast: 60 / 67 °F
Wind: 15 mph from South

Location: Antofagasta Airport

Current Time: Sep 25, 2016 at 2:27:01 PM

Latest Report: Sep 25, 2016 at 2:00 PM


Visibility: N/A

Pressure: 30.01 "Hg

Humidity: 72%

Dew Point: 52 °F

Location of AntofagastaLocation

Past Weather in Antofagasta — Graph

°F

Antofagasta Temperature Yesterday

Maximum temperature yesterday: 64 °F (at 12:00 PM)
Minimum temperature yesterday: 59 °F (at 12:00 AM)
Average temperature yesterday: 60 °F

High & Low Weather Summary for the Past Weeks

 TemperatureHumidityPressure
High66 °F (Sep 20, 12:00 PM)88% (Sep 15, 12:00 AM)30.15 "Hg (Sep 15, 12:00 AM)
Low54 °F (Sep 15, 4:00 AM)52% (Sep 20, 12:00 PM)29.86 "Hg (Sep 19, 5:00 PM)
Average60 °F73%30.01 "Hg
* Reported Sep 10 1:00 PM — Sep 25 1:00 PM, Antofagasta, Weather by CustomWeather, © 2016

Note: Actual official high and low records may vary slightly from our data, if they occured in-between our weather recording intervals... More about our weather records

Advertising

Antofagasta Weather History for the Previous 24 Hours

Scroll right to see more
 ConditionsComfort  
Time TempWeatherWind HumidityBarometerVisibility
1:00 PM
Sun, Sep 25
61 °FPartly sunny.15 mph72%30.01 "HgN/A
12:00 PM61 °FPartly sunny.10 mph72%30.04 "HgN/A
11:00 AM59 °FPartly sunny.7 mph77%30.04 "HgN/A
10:00 AM59 °FBroken clouds.10 mph82%30.04 "HgN/A
9:00 AM59 °FPartly sunny.9 mph82%30.04 "HgN/A
8:00 AM59 °FPartly sunny.3 mph82%30.01 "HgN/A
7:00 AM57 °FPassing clouds.5 mph88%30.01 "HgN/A
6:00 AM57 °FOvercast.8 mph88%30.01 "HgN/A
5:00 AM59 °FOvercast.5 mph77%30.01 "HgN/A
4:00 AM59 °FMostly cloudy.5 mph77%29.98 "HgN/A
3:00 AM59 °FPassing clouds.7 mph77%30.01 "HgN/A
2:00 AM59 °FPassing clouds.10 mph77%30.01 "HgN/A
1:00 AM59 °FMostly cloudy.10 mph77%30.04 "HgN/A
12:00 AM59 °FOvercast.12 mph82%30.04 "HgN/A
11:00 PM
Sat, Sep 24
59 °FPassing clouds.12 mph82%30.04 "HgN/A
10:00 PM59 °FPassing clouds.13 mph82%30.01 "HgN/A
9:00 PM59 °FPassing clouds.15 mph82%30.01 "HgN/A
8:00 PM59 °FPartly cloudy.14 mph82%29.98 "HgN/A
7:00 PM61 °FBroken clouds.14 mph77%29.98 "HgN/A
6:00 PM63 °FScattered clouds.14 mph73%29.98 "HgN/A
5:00 PM63 °FPassing clouds.14 mph68%29.98 "HgN/A
4:00 PM63 °FPassing clouds.13 mph68%29.98 "HgN/A
3:00 PM64 °FPassing clouds.14 mph64%30.01 "HgN/A
2:00 PM63 °FPassing clouds.12 mph68%30.04 "HgN/A
Weather by CustomWeather, © 2016

See weather overviewHow to use our weather pages